FW2982 Weather Reports


time (UTC)temp
C
wind
direction
speed
KPH
gust
KPH
rain 1hr
cm
rain 24hr
cm
rain mn
cm
humidity
%
barometer
mb
20260505055922 15 219 0.0 1.6 0.00 0.00 0.00 71 1008.5
20260505055422 15 219 0.0 1.6 0.00 0.00 0.00 71 1008.4
20260505054921 15 219 0.0 3.2 0.00 0.00 0.00 72 1008.5
20260505054422 15 219 1.6 3.2 0.00 0.00 0.00 72 1008.4
20260505053923 15 220 0.0 0.0 0.00 0.00 0.00 71 1008.5
20260505053421 15 220 0.0 0.0 0.00 0.00 0.00 72 1008.5
20260505052922 15 220 0.0 0.0 0.00 0.00 0.00 72 1008.5
20260505052421 15 220 0.0 0.0 0.00 0.00 0.00 72 1008.5
20260505051922 15 220 0.0 0.0 0.00 0.00 0.00 71 1008.5
20260505051418 15 220 0.0 0.0 0.00 0.00 0.00 70 1008.5
20260505050920 15 220 0.0 0.0 0.00 0.00 0.00 70 1008.5
20260505050419 15 220 0.0 0.0 0.00 0.00 0.00 69 1008.5
20260505041418 16 220 0.0 4.8 0.00 0.00 0.00 64 1008.8
20260505040917 17 220 3.2 4.8 0.00 0.00 0.00 64 1008.8
20260505040417 16 221 0.0 3.2 0.00 0.00 0.00 64 1008.8
20260505035917 16 227 1.6 3.2 0.00 0.00 0.00 64 1008.9
20260505035417 16 227 1.6 3.2 0.00 0.00 0.00 64 1008.7
20260505034918 16 224 0.0 3.2 0.00 0.00 0.00 63 1008.6
20260505034416 16 223 0.0 4.8 0.00 0.00 0.00 63 1008.8
20260505033917 16 223 1.6 4.8 0.00 0.00 0.00 63 1008.7
20260505033417 16 224 0.0 3.2 0.00 0.00 0.00 63 1008.8
20260505033156 17 224 0.0 3.2 0.00 0.00 0.00 62 1008.7
20260505032655 17 224 0.0 3.2 0.00 0.00 0.00 62 1008.8
20260505031918 17 226 0.0 3.2 0.00 0.00 0.00 62 1008.8
20260505031417 17 221 0.0 3.2 0.00 0.00 0.00 61 1008.7
20260505030915 17 221 0.0 3.2 0.00 0.00 0.00 61 1008.7
20260505030416 17 221 0.0 1.6 0.00 0.00 0.00 61 1008.6
20260505025918 17 221 0.0 1.6 0.00 0.00 0.00 60 1008.7
20260505025657 17 221 0.0 1.6 0.00 0.00 0.00 60 1008.7
20260505024915 17 221 0.0 1.6 0.00 0.00 0.00 59 1008.6
20260505024415 17 221 0.0 1.6 0.00 0.00 0.00 58 1008.6
20260505023918 17 221 0.0 1.6 0.00 0.00 0.00 57 1008.5
20260505023416 18 221 0.0 3.2 0.00 0.00 0.00 56 1008.6
20260505022915 18 221 0.0 3.2 0.00 0.00 0.00 56 1008.6
20260505022416 18 223 0.0 1.6 0.00 0.00 0.00 55 1008.6
20260505021917 18 223 0.0 6.4 0.00 0.00 0.00 55 1008.5
20260505021657 18 223 0.0 6.4 0.00 0.00 0.00 54 1008.5
20260505020915 18 213 0.0 4.8 0.00 0.00 0.00 54 1008.6
20260505020414 18 212 0.0 4.8 0.00 0.00 0.00 54 1008.5
20260505020154 18 269 0.0 6.4 0.00 0.00 0.00 54 1008.5
20260505015416 18 216 1.6 6.4 0.00 0.00 0.00 56 1008.4
20260505014915 18 185 0.0 1.6 0.00 0.00 0.00 56 1008.3
20260505014415 18 185 0.0 1.6 0.00 0.00 0.00 55 1008.3
20260505013914 18 185 0.0 1.6 0.00 0.00 0.00 54 1008.4
20260505013414 18 185 0.0 1.6 0.00 0.00 0.00 54 1008.2
20260505012916 18 185 0.0 1.6 0.00 0.00 0.00 54 1008.3
20260505012414 19 185 0.0 1.6 0.00 0.00 0.00 54 1008.2
20260505012157 19 185 0.0 0.0 0.00 0.00 0.00 53 1008.0
20260505011415 19 185 0.0 1.6 0.00 0.00 0.00 52 1007.8
20260505010914 20 185 0.0 3.2 0.00 0.00 0.00 51 1008.0
20260505010413 20 185 1.6 3.2 0.00 0.00 0.00 50 1007.9
20260505005913 20 221 0.0 3.2 0.00 0.00 0.00 51 1007.8
20260505005653 20 221 0.0 3.2 0.00 0.00 0.00 50 1007.8
20260505005155 20 221 0.0 1.6 0.00 0.00 0.00 50 1007.8
20260505004412 20 221 0.0 1.6 0.00 0.00 0.00 50 1007.9
20260505003914 20 220 0.0 3.2 0.00 0.00 0.00 49 1007.8
20260505003414 20 221 0.0 4.8 0.00 0.00 0.00 49 1007.8
20260505003153 20 220 1.6 4.8 0.00 0.00 0.00 48 1007.7
20260505002412 20 219 0.0 1.6 0.00 0.00 0.00 49 1007.7
20260505001914 20 219 0.0 3.2 0.00 0.00 0.00 49 1007.7
20260505001413 21 219 0.0 4.8 0.00 0.00 0.00 48 1007.7
20260505000909 21 219 1.6 6.4 0.00 0.00 0.00 48 1007.6
20260505000409 21 228 0.0 6.4 0.00 0.00 0.00 46 1007.7
20260505000148 21 223 1.6 6.4 0.00 0.00 0.00 46 1007.6
20260504235408 21 206 1.6 3.2 0.00 0.00 0.00 46 1007.7
20260504234908 21 213 0.0 8.0 0.00 0.00 0.00 46 1007.6
20260504234408 22 212 3.2 8.0 0.00 0.00 0.00 45 1007.5
20260504233906 22 266 1.6 8.0 0.00 0.00 0.00 45 1007.6
20260504233403 22 258 3.2 8.0 0.00 0.00 0.00 44 1007.5
20260504232904 22 216 1.6 6.4 0.00 0.00 0.00 44 1007.5
20260504232403 22 274 1.6 4.8 0.00 0.00 0.00 43 1007.5
20260504231903 22 226 3.2 8.0 0.00 0.00 0.00 43 1007.5
20260504231403 22 220 1.6 8.0 0.00 0.00 0.00 42 1007.4
20260504230901 22 219 1.6 9.7 0.00 0.00 0.00 42 1007.5
20260504230405 22 117 3.2 11.3 0.00 0.00 0.00 41 1007.4
20260504225854 22 213 4.8 11.3 0.00 0.00 0.00 41 1007.4
20260504225354 22 58 3.2 8.0 0.00 0.00 0.00 41 1007.4
20260504224854 23 240 3.2 9.7 0.00 0.00 0.00 40 1007.4
20260504224353 23 240 3.2 17.7 0.00 0.00 0.00 40 1007.4
20260504223847 23 217 4.8 17.7 0.00 0.00 0.00 40 1007.3
20260504223628 23 221 3.2 16.1 0.00 0.00 0.00 40 1007.3
20260504223127 23 0 6.4 16.1 0.00 0.00 0.00 40 1007.4
20260504222347 23 179 3.2 6.4 0.00 0.00 0.00 39 1007.3
20260504221847 23 204 1.6 11.3 0.00 0.00 0.00 40 1007.4
20260504221346 23 217 3.2 11.3 0.00 0.00 0.00 38 1007.3
20260504220842 23 228 3.2 8.0 0.00 0.00 0.00 39 1007.3
20260504220343 23 18 4.8 9.7 0.00 0.00 0.00 38 1007.2
20260504215844 23 107 4.8 9.7 0.00 0.00 0.00 38 1007.2
20260504215341 24 247 1.6 8.0 0.00 0.00 0.00 39 1007.3
20260504214841 24 227 1.6 11.3 0.00 0.00 0.00 38 1007.3
20260504214341 24 254 4.8 17.7 0.00 0.00 0.00 38 1007.3
20260504213841 24 117 3.2 17.7 0.00 0.00 0.00 37 1007.2
20260504213340 23 216 1.6 9.7 0.00 0.00 0.00 38 1007.2
20260504212840 24 247 3.2 16.1 0.00 0.00 0.00 37 1007.2
20260504212339 24 206 4.8 16.1 0.00 0.00 0.00 36 1007.2
20260504211840 25 17 1.6 11.3 0.00 0.00 0.00 36 1007.2
20260504211340 25 281 3.2 11.3 0.00 0.00 0.00 36 1007.3
20260504210835 25 202 3.2 9.7 0.00 0.00 0.00 38 1007.2
20260504210335 24 171 3.2 9.7 0.00 0.00 0.00 37 1007.1
20260504205837 24 166 1.6 9.7 0.00 0.00 0.00 38 1007.2
20260504205333 25 278 3.2 9.7 0.00 0.00 0.00 36 1007.2
20260504205112 25 155 3.2 8.0 0.00 0.00 0.00 35 1007.2
20260504204322 25 197 1.6 9.7 0.00 0.00 0.00 36 1007.2
20260504203823 25 138 1.6 9.7 0.00 0.00 0.00 36 1007.2
20260504203323 25 212 3.2 9.7 0.00 0.00 0.00 35 1007.3
20260504202821 24 247 3.2 9.7 0.00 0.00 0.00 36 1007.5
20260504202322 25 203 3.2 9.7 0.00 0.00 0.00 35 1007.5
20260504201808 25 213 1.6 9.7 0.00 0.00 0.00 36 1007.6
20260504201308 25 220 1.6 6.4 0.00 0.00 0.00 35 1007.6
20260504200807 25 92 1.6 6.4 0.00 0.00 0.00 34 1007.6
20260504200307 25 238 1.6 11.3 0.00 0.00 0.00 35 1007.7
20260504195806 25 223 6.4 11.3 0.00 0.00 0.00 34 1007.8
20260504195306 25 245 4.8 11.3 0.00 0.00 0.00 32 1007.9
20260504194808 26 283 4.8 8.0 0.00 0.00 0.00 32 1008.0
20260504194306 25 166 1.6 11.3 0.00 0.00 0.00 33 1008.0
20260504193806 25 241 4.8 11.3 0.00 0.00 0.00 34 1008.1
20260504193307 25 327 1.6 9.7 0.00 0.00 0.00 32 1008.0
20260504192826 25 118 3.2 8.0 0.00 0.00 0.00 35 1008.2
20260504192818 25 230 1.6 9.7 0.00 0.00 0.00 35 1008.1
20260504191803 26 248 3.2 8.0 0.00 0.00 0.00 33 1008.3
20260504191543 26 251 1.6 14.5 0.00 0.00 0.00 35 1008.5
20260504190804 26 298 4.8 14.5 0.00 0.00 0.00 35 1008.7
20260504190544 25 58 1.6 11.3 0.00 0.00 0.00 34 1008.6
20260504185803 26 92 4.8 11.3 0.00 0.00 0.00 35 1008.8
20260504185304 26 230 4.8 11.3 0.00 0.00 0.00 35 1008.9
20260504185042 25 219 6.4 11.3 0.00 0.00 0.00 34 1008.9
20260504184302 25 221 4.8 8.0 0.00 0.00 0.00 33 1008.9
20260504183802 25 233 3.2 9.7 0.00 0.00 0.00 36 1009.0
20260504183541 25 107 1.6 16.1 0.00 0.00 0.00 36 1009.1
20260504182803 26 214 3.2 16.1 0.00 0.00 0.00 34 1009.2
20260504182304 26 234 4.8 14.5 0.00 0.00 0.00 34 1009.2
20260504181803 25 192 3.2 11.3 0.00 0.00 0.00 35 1009.3
20260504181304 25 258 3.2 11.3 0.00 0.00 0.00 34 1009.4
20260504180801 25 7 3.2 11.3 0.00 0.00 0.00 34 1009.5
20260504180301 25 206 4.8 11.3 0.00 0.00 0.00 33 1009.7
20260504180044 25 321 1.6 9.7 0.00 0.00 0.00 35 1009.6
20260504175543 25 329 1.6 9.7 0.00 0.00 0.00 36 1009.6
20260504174758 25 268 3.2 9.7 0.00 0.00 0.00 35 1009.8
20260504174258 24 188 4.8 9.7 0.00 0.00 0.00 36 1009.9
20260504173756 23 219 3.2 9.7 0.00 0.00 0.00 35 1010.0
20260504173252 25 210 4.8 14.5 0.00 0.00 0.00 35 1009.9
20260504172753 25 317 3.2 14.5 0.00 0.00 0.00 35 1010.0
20260504172236 25 204 3.2 8.0 0.00 0.00 0.00 33 1010.1
20260504172011 25 204 1.6 6.4 0.00 0.00 0.00 36 1010.2
20260504171231 24 107 3.2 8.0 0.00 0.00 0.00 37 1010.2
20260504170733 25 268 3.2 8.0 0.00 0.00 0.00 35 1010.4
20260504170231 25 266 3.2 6.4 0.00 0.00 0.00 36 1010.4
20260504160202 24 262 1.6 4.8 0.00 0.00 0.00 35 1011.0
20260504150700 22 258 1.6 8.0 0.00 0.00 0.00 38 1011.7
20260504150201 22 214 3.2 6.4 0.00 0.00 0.00 37 1011.8
20260504141159 20 142 1.6 6.4 0.00 0.00 0.00 41 1011.7
20260504140659 20 111 1.6 6.4 0.00 0.00 0.00 41 1011.7
20260504140200 20 90 1.6 6.4 0.00 0.00 0.00 41 1011.8
20260504130151 17 272 1.6 4.8 0.00 0.00 0.00 51 1012.4
20260504120140 12 195 1.6 4.8 0.00 0.00 0.00 62 1012.8
20260504110630 8 338 0.0 0.0 0.00 0.00 0.00 77 1012.8
20260504110133 8 338 0.0 0.0 0.00 0.00 0.00 76 1012.7
20260504100105 8 338 0.0 0.0 0.00 0.00 0.00 72 1012.6
20260504081551 8 338 0.0 3.2 0.00 0.00 0.00 74 1013.0
20260504081051 7 338 0.0 3.2 0.00 0.00 0.00 80 1013.0
20260504080829 7 338 0.0 3.2 0.00 0.00 0.00 81 1012.9